Hourly Data Report for May 29, 2012

All times are specified in Local Standard Time (LST). Add 1 hour to adjust for Daylight Saving Time where and when it is observed.

HAMILTON A
ONTARIO

43°10'25.000" N
79°56'06.000" W
237.70 m
6153193
71263
YHM

Download Data

Hourly Data (May 2012)
Hourly Data Report for May 29, 2012
Temp Definition
°C
Dew Point Temp Definition
°C
Rel Hum Definition
%
Wind Dir Definition
10's deg

Wind Spd Definition
km/h
Visibility Definition
km
Stn Press Definition
kPa
Hmdx Definition


Wind Chill Definition


Weather Definition


TIME
00:00 Legend Double Dagger 24.8 19.9 74 21 24 10.0 97.97 32   LegendNANA
01:00 Legend Double Dagger 25.3 20.2 73 22 25 10.0 97.94 33   Mainly Clear
02:00 Legend Double Dagger 25.5 20.2 72 22 27 10.0 97.90 33   LegendNANA
03:00 Legend Double Dagger 24.9 19.8 73 23 27 10.0 97.90 32   LegendNANA
04:00 Legend Double Dagger 24.2 19.6 75 23 25 10.0 97.86 31   Mainly Clear
05:00 Legend Double Dagger 23.3 19.5 79 22 16 10.0 97.81 30   LegendNANA
06:00 Legend Double Dagger 24.0 19.8 77 23 21 10.0 97.85 31   LegendNANA
07:00 Legend Double Dagger 24.1 20.1 78 22 15 10.0 97.82 32   Mostly Cloudy
08:00 Legend Double Dagger 24.3 19.2 73 24 22 10.0 97.87 31   LegendNANA
09:00 Legend Double Dagger 24.4 18.5 69 24 18 10.0 97.88 31   LegendNANA
10:00 Legend Double Dagger 22.9 18.1 74 26 29 10.0 97.87 29   Rain Showers
11:00 Legend Double Dagger 22.9 16.1 65 26 28 10.0 97.80 28   LegendNANA
12:00 Legend Double Dagger 23.1 16.3 65 27 27 10.0 97.88 28   LegendNANA
13:00 Legend Double Dagger 23.9 17.7 68 24 23 10.0 97.76 30   Mostly Cloudy
14:00 Legend Double Dagger 24.6 18.6 69 26 23 10.0 97.73 31   LegendNANA
15:00 Legend Double Dagger 24.0 17.8 68 26 24 10.0 97.78 30   LegendNANA
16:00 Legend Double Dagger 26.1 9.3 34 27 28 10.0 97.82 27   Mostly Cloudy
17:00 Legend Double Dagger 25.3 7.7 32 27 21 10.0 97.79 26   LegendNANA
18:00 Legend Double Dagger 24.8 8.5 35 29 23 10.0 97.77 25   LegendNANA
19:00 Legend Double Dagger 23.2 7.5 36 28 18 10.0 97.86     Mostly Cloudy
20:00 Legend Double Dagger 21.6 8.3 42 27 7 10.0 97.85     LegendNANA
21:00 Legend Double Dagger 18.8 8.9 52 21 8 10.0 97.89     LegendNANA
22:00 Legend Double Dagger 17.8 9.0 56 22 8 10.0 97.96     Mostly Cloudy
23:00 Legend Double Dagger 17.2 9.2 59 22 6 10.0 97.94     LegendNANA

Notes on Data Quality.

Legend

  • E = Estimated
  • M = Missing
  • NA = Not Available
  • ‡ = Partner data that is not subject to review by the National Climate Archives
Date modified: